Lufkin, TX

10:24 AM CDT on March 26, 2017 (GMT -0500)
Angelina County

Weather History for KLFK - June, 2014

Change the Weather History Date:

Tuesday, June 17, 2014

  Actual Average Record
Temperature  
Mean Temperature 86 °F 80 °F  
Max Temperature 94 °F 91 °F 103 °F (1918)
Min Temperature 77 °F 70 °F 53 °F (1917)
Degree Days  
Heating Degree Days 0 0  
Month to date heating degree days 0 0  
Since 1 June heating degree days 0 0  
Since 1 July heating degree days 2125 1917  
Cooling Degree Days 21 15  
Month to date cooling degree days 297 241  
Year to date cooling degree days 793 710  
Since 1 June cooling degree days 297 241  
Growing Degree Days 35 (Base 50)    
Moisture  
Dew Point 73 °F    
Average Humidity 69    
Maximum Humidity 88    
Minimum Humidity 49    
Precipitation  
Precipitation 0.00 in 0.17 in 2.59 in (2015)
Month to date precipitation 2.73 2.69  
Year to date precipitation 18.91 22.21  
Snow  
Snow 0.00 in - - ()
Month to date snowfall 0.0  
Since 1 June snowfall 0.0  
Since 1 July snowfall 3.2  
Snow Depth 0.00 in    
Sea Level Pressure  
Sea Level Pressure 30.03 in    
Wind  
Wind Speed 9 mph (SSE)    
Max Wind Speed 17 mph    
Max Gust Speed 21 mph    
Visibility 8 miles    
Events Thunderstorm    
T = Trace of Precipitation, MM = Missing Value Source: NWS Daily Summary

Daily Weather History Graph

Daily Weather History Graph

Search for Another Location

Airport or City:

Trip Planner

Search our weather history database for the weather conditions in past years. The results will help you decide how hot, cold, wet, or windy it might be!

Date:

Astronomy

Jun. 17, 2014 Rise Set
Actual Time 6:14 AM CDT 8:25 PM CDT
Civil Twilight 5:46 AM CDT 8:53 PM CDT
Nautical Twilight 5:12 AM CDT 9:27 PM CDT
Astronomical Twilight 4:35 AM CDT 10:04 PM CDT
Moon No Moon Rise 11:12 AM CDT (6/17)
Length of Visible Light 15h 06m
Length of Day
14h 10m
Waning Gibbous, 73% of the Moon is Illuminated
Jun 17
Waning Gibbous
Jun 19
Last Quarter
Jun 27
New
Jul 5
First Quarter
Jul 12
Full

Hourly Weather History & Observations

Time (CDT) Temp. Heat Index Dew Point Humidity Pressure Visibility Wind Dir Wind Speed Gust Speed Precip Events Conditions
12:18 AM 78.1 °F - 73.0 °F 84% 30.04 in 9.0 mi SE 5.8 mph - N/A   Mostly Cloudy
12:41 AM 77.0 °F - 73.0 °F 88% 30.04 in 9.0 mi SE 4.6 mph - N/A   Scattered Clouds
12:53 AM 77.0 °F - 73.0 °F 88% 30.02 in 8.0 mi SSE 5.8 mph - N/A   Scattered Clouds
12:59 AM 77.0 °F - 73.4 °F 89% 30.03 in 8.0 mi SE 5.8 mph - N/A   Mostly Cloudy
1:26 AM 77.0 °F - 73.0 °F 88% 30.04 in 7.0 mi SE 5.8 mph - N/A   Overcast
1:44 AM 77.0 °F - 73.0 °F 88% 30.03 in 6.0 mi SE 5.8 mph - N/A   Overcast
1:53 AM 77.0 °F - 73.0 °F 88% 30.02 in 6.0 mi SE 5.8 mph - N/A   Overcast
2:04 AM 77.0 °F - 73.0 °F 88% 30.03 in 6.0 mi SE 6.9 mph - N/A   Overcast
2:53 AM 77.0 °F - 73.9 °F 90% 30.02 in 6.0 mi SE 6.9 mph - N/A   Overcast
3:31 AM 77.0 °F - 73.9 °F 90% 30.03 in 6.0 mi SSE 6.9 mph - N/A   Overcast
3:53 AM 77.0 °F - 73.0 °F 88% 30.02 in 6.0 mi SSE 5.8 mph - N/A   Overcast
4:37 AM 77.0 °F - 73.0 °F 88% 30.03 in 6.0 mi SE 5.8 mph - N/A   Overcast
4:45 AM 77.0 °F - 73.0 °F 88% 30.03 in 6.0 mi SSE 4.6 mph - N/A   Overcast
4:53 AM 77.0 °F - 73.0 °F 88% 30.02 in 6.0 mi SSE 5.8 mph - N/A   Overcast
5:28 AM 77.0 °F - 73.0 °F 88% 30.04 in 5.0 mi SE 4.6 mph - N/A   Overcast
5:35 AM 77.0 °F - 73.0 °F 88% 30.04 in 5.0 mi SE 4.6 mph - N/A   Overcast
5:53 AM 77.0 °F - 73.9 °F 90% 30.03 in 6.0 mi SE 4.6 mph - N/A   Overcast
6:53 AM 78.1 °F - 73.9 °F 87% 30.04 in 5.0 mi SE 5.8 mph - N/A   Overcast
7:53 AM 80.1 °F 85.1 °F 75.0 °F 85% 30.06 in 6.0 mi SSE 5.8 mph - N/A   Haze
8:47 AM 80.6 °F 86.2 °F 75.2 °F 84% 30.08 in 8.0 mi SSE 8.1 mph - N/A   Overcast
8:53 AM 82.0 °F 89.4 °F 75.9 °F 82% 30.07 in 8.0 mi South 8.1 mph - N/A   Overcast
9:31 AM 84.0 °F 92.6 °F 75.9 °F 76% 30.08 in 10.0 mi South 9.2 mph - N/A   Overcast
9:53 AM 84.9 °F 93.3 °F 75.0 °F 72% 30.06 in 10.0 mi South 10.4 mph - N/A   Mostly Cloudy
10:40 AM 86.0 °F 93.8 °F 73.9 °F 67% 30.07 in 10.0 mi South 9.2 mph 17.3 mph N/A   Overcast
10:53 AM 89.1 °F 99.1 °F 75.0 °F 63% 30.06 in 10.0 mi South 12.7 mph 19.6 mph N/A   Mostly Cloudy
11:09 AM 89.1 °F 98.0 °F 73.9 °F 61% 30.07 in 10.0 mi South 13.8 mph - N/A   Mostly Cloudy
11:18 AM 88.0 °F 96.5 °F 73.9 °F 63% 30.07 in 10.0 mi SSW 9.2 mph - N/A   Mostly Cloudy
11:25 AM 90.0 °F 99.0 °F 73.9 °F 59% 30.07 in 10.0 mi South 13.8 mph - N/A   Mostly Cloudy
11:53 AM 91.0 °F 99.3 °F 73.0 °F 55% 30.06 in 10.0 mi South 10.4 mph - N/A   Partly Cloudy
12:53 PM 91.9 °F 100.7 °F 73.0 °F 54% 30.04 in 10.0 mi South 9.2 mph - N/A   Scattered Clouds
1:05 PM 91.9 °F 100.7 °F 73.0 °F 54% 30.05 in 10.0 mi South 9.2 mph - N/A Thunderstorm Scattered Clouds
1:20 PM 91.9 °F 100.7 °F 73.0 °F 54% 30.05 in 10.0 mi South 12.7 mph - N/A   Scattered Clouds
1:44 PM 91.0 °F 99.3 °F 73.0 °F 55% 30.04 in 10.0 mi South 11.5 mph - N/A Thunderstorm Partly Cloudy
1:53 PM 91.0 °F 100.4 °F 73.9 °F 57% 30.02 in 10.0 mi SSE 12.7 mph - N/A Thunderstorm Thunderstorm
2:11 PM 91.9 °F 100.7 °F 73.0 °F 54% 30.03 in 10.0 mi SE 12.7 mph 20.7 mph N/A Thunderstorm Clear
2:28 PM 91.0 °F 99.3 °F 73.0 °F 55% 30.03 in 10.0 mi SSE 10.4 mph 20.7 mph N/A   Clear
2:53 PM 91.9 °F 101.3 °F 73.9 °F 55% 30.01 in 10.0 mi South 11.5 mph - N/A   Clear
3:53 PM 93.9 °F 104.0 °F 73.9 °F 52% 29.98 in 10.0 mi South 10.4 mph 21.9 mph N/A   Scattered Clouds
4:53 PM 93.0 °F 100.1 °F 71.1 °F 49% 29.98 in 10.0 mi South 10.4 mph - N/A   Clear
5:53 PM 91.9 °F 98.4 °F 71.1 °F 50% 29.98 in 10.0 mi SSE 15.0 mph 20.7 mph N/A   Clear
6:53 PM 91.0 °F 97.6 °F 71.1 °F 52% 29.97 in 10.0 mi SSE 10.4 mph - N/A   Clear
7:53 PM 87.1 °F 93.6 °F 72.0 °F 61% 29.96 in 10.0 mi SSE 6.9 mph - N/A   Clear
8:53 PM 82.9 °F 88.0 °F 72.0 °F 69% 29.98 in 10.0 mi SE 5.8 mph - N/A   Clear
9:53 PM 82.0 °F 86.7 °F 72.0 °F 71% 29.99 in 10.0 mi SSE 8.1 mph - N/A   Clear
10:53 PM 80.1 °F 83.8 °F 72.0 °F 76% 30.01 in 10.0 mi SSE 8.1 mph - N/A   Clear
11:53 PM 79.0 °F - 72.0 °F 79% 30.01 in 10.0 mi South 9.2 mph - N/A   Clear